sat.trackr.live / text

‹ back to catalog

STARLINK-4711

NORAD 53701 · 2022-107B

PAYLOAD ACTIVE UNKNOWN

§ Identity

Operator
Country
US
Launch date
2022-09-05
Launch site
AFETR
Launch vehicle
Mass (kg)
RCS (m²)

Purposes: comms

External: N2YO · Heavens-Above · Gunter

§ Orbital elements

Epoch: 2026-05-25T00:35:23.752608Z

Period
95.44 min
Inclination
53.2130°
Eccentricity
0.0001421
Mean motion
15.08829142 rev/d
Perigee alt
538.8 km
Apogee alt
540.8 km
Semi-major
6,917.9 km
B*
1.2045e-4
RAAN
261.0274°
Arg perigee
91.3513°
Mean anomaly
268.7642°
Rev number
20,638

§ Raw data

STARLINK-47111 53701U 22107B   26145.02458047  .00001629  00000+0  12045-3 0  99982 53701  53.2130 261.0274 0001421  91.3513 268.7642 15.08829142206388

JSON: /api/v1/satellites/53701 · /tle

For live sub-satellite position, see the globe view (requires WebGL).

§ Visibility from observer

Set your observer location to see the next 7 days of passes ≥ 10°. The values pass through the URL so the page stays shareable.

No JS? Fill the form by hand. The geolocation button needs JavaScript.